Regional Weather Roundup
Issued by NWS

Home | Current Version | Previous Version | Text Only | Print | Product List | Glossary On
Versions: 1 2 3 4 5 6 7 8 9 10 11 12 13 14 15 16 17 18 19 20 21 22 23 24 25 26 27 28 29 30 31 32 33 34 35 36 37 38 39 40 41 42 43 44 45 46 47 48 49 50
000
ASUS43 KFSD 190810
RWRSD

WEATHER ROUNDUP FOR SOUTH DAKOTA
NATIONAL WEATHER SERVICE SIOUX FALLS SD
200 AM CST SUN NOV 19 2017

NOTE: "FAIR" INDICATES FEW OR NO CLOUDS BELOW 12,000 FEET WITH NO
SIGNIFICANT WEATHER AND/OR OBSTRUCTIONS TO VISIBILITY.


SDZ001>005-009-010-012>017-190900-
NORTHWEST AND NORTH CENTRAL SOUTH DAKOTA

CITY           SKY/WX    TMP DP  RH WIND       PRES   REMARKS
BUFFALO          N/A     26  18  71 W13       29.96F WCI  15
FAITH            N/A     29  22  75 SW15      30.06F WCI  18
MOBRIDGE       CLOUDY    22  17  81 SE6       30.04F WCI  14
$$

SDZ012>016-024>037-041>051-057-063-072>074-190900-
SOUTHWEST AND SOUTH CENTRAL SOUTH DAKOTA

CITY           SKY/WX    TMP DP  RH WIND       PRES   REMARKS
RAPID CTY ARPT CLOUDY    22  14  71 NW6       30.10F WCI  14
PIERRE         CLOUDY    25  22  88 SW8       30.11F WCI  16
CUSTER         CLOUDY    27  11  51 CALM      30.08S
ELLSWORTH AFB  CLOUDY    25  15  66 W5        30.09F WCI  19
PHILIP         CLEAR     26  21  81 W7        30.13F WCI  18
PINE RIDGE     CLEAR     21  16  81 NW3       30.14F
SPEARFISH      FAIR      36  14  41 W9        30.08F
WINNER         FAIR      32  22  66 SW8       30.14F WCI  25
$$

SDZ004>011-016>023-039-040-190900-
NORTHEAST SOUTH DAKOTA

CITY           SKY/WX    TMP DP  RH WIND       PRES   REMARKS
ABERDEEN       CLEAR     13  10  88 S3        30.08F
WATERTOWN      CLEAR     17  14  88 W7        30.07F WCI   8
BROOKINGS      CLEAR     21  16  81 W5        30.12R WCI  15
SISSETON         N/A     21  15  78 W5        30.05F WCI  15
$$

SDZ017-020-022-023-036>040-048>070-190900-
SOUTHEAST SOUTH DAKOTA

CITY           SKY/WX    TMP DP  RH WIND       PRES   REMARKS
SIOUX FALLS    CLEAR     21  16  81 W8        30.15S WCI  11
HURON          CLOUDY    22  16  78 SW9       30.13F WCI  12
CHAMBERLAIN    CLOUDY    22  20  93 CALM      30.14F
MITCHELL       CLOUDY    24  19  81 SW8       30.17S WCI  15
YANKTON        CLEAR     25  21  85 SW8       30.19S WCI  16
$$

ABBREVIATIONS USED IN REMARKS
   TC - TEMPERATURE IN CELSIUS
  WCI - WIND CHILL INDEX
   HX - HEAT INDEX
  VSB - VISIBILITY




USA.gov is the U.S. government's official web portal to all federal, state and local government web resources and services.